TimeCDT,TemperatureF,Dew PointF,Humidity,Sea Level PressureIn,VisibilityMPH,Wind Direction,Wind SpeedMPH,Gust SpeedMPH,PrecipitationIn,Events,Conditions,WindDirDegrees,DateUTC
12:53 AM,34.0,34.0,100,30.24,3.0,North,16.1,-,0.01,Rain,Rain,10,2013-05-03 05:53:00
1:01 AM,33.8,33.8,100,30.20,3.0,North,12.7,-,0.01,Rain,Light Freezing Rain,10,2013-05-03 06:01:00
1:26 AM,33.8,33.8,100,30.18,4.0,North,17.3,-,0.02,Rain,Light Rain,10,2013-05-03 06:26:00
1:34 AM,33.8,33.8,100,30.18,7.0,North,17.3,-,0.02,Rain,Light Freezing Rain,10,2013-05-03 06:34:00
1:53 AM,33.1,33.1,100,30.20,5.0,North,13.8,-,0.03,Rain,Light Freezing Rain,10,2013-05-03 06:53:00
2:02 AM,33.8,33.8,100,30.15,5.0,North,18.4,-,0.01,Rain,Light Freezing Rain,10,2013-05-03 07:02:00
2:10 AM,33.8,33.8,100,30.15,5.0,North,15.0,21.9,0.03,Rain,Light Freezing Rain,10,2013-05-03 07:10:00
2:53 AM,33.8,33.8,100,30.14,6.0,North,15.0,23.0,N/A,Rain,Light Freezing Rain,10,2013-05-03 07:53:00
3:20 AM,33.8,33.8,100,30.14,8.0,North,13.8,-,0.04,Rain,Light Freezing Rain,10,2013-05-03 08:20:00
3:53 AM,33.1,33.1,100,30.17,8.0,North,15.0,-,0.06,Rain,Light Freezing Rain,10,2013-05-03 08:53:00
4:40 AM,33.8,33.8,100,30.12,9.0,NNE,15.0,24.2,0.03,,Overcast,20,2013-05-03 09:40:00
4:43 AM,33.8,33.8,100,30.12,9.0,North,17.3,23.0,0.03,Rain,Light Freezing Rain,10,2013-05-03 09:43:00
4:53 AM,33.1,33.1,100,30.14,10.0,NNE,17.3,27.6,0.03,Rain,Light Freezing Rain,20,2013-05-03 09:53:00
5:11 AM,33.8,33.8,100,30.10,8.0,NNE,19.6,-,0.01,,Overcast,20,2013-05-03 10:11:00
5:17 AM,33.8,33.8,100,30.10,7.0,NNE,20.7,28.8,0.01,Rain,Light Freezing Rain,20,2013-05-03 10:17:00
5:34 AM,33.8,32.0,93,30.10,9.0,NNE,21.9,27.6,0.01,Rain,Light Freezing Rain,20,2013-05-03 10:34:00
5:44 AM,33.8,32.0,93,30.10,10.0,NNE,16.1,-,0.02,,Overcast,20,2013-05-03 10:44:00
5:53 AM,33.1,32.0,96,30.12,10.0,NNE,16.1,24.2,0.02,Rain,Light Freezing Rain,20,2013-05-03 10:53:00
6:53 AM,33.1,33.1,100,30.13,10.0,NNE,16.1,24.2,0.00,,Overcast,20,2013-05-03 11:53:00
7:12 AM,33.8,33.8,100,30.09,10.0,NNE,17.3,-,0.00,Rain,Light Freezing Rain,20,2013-05-03 12:12:00
7:27 AM,33.8,33.8,100,30.08,10.0,NNE,15.0,23.0,0.00,,Overcast,20,2013-05-03 12:27:00
7:53 AM,34.0,33.1,96,30.12,10.0,North,17.3,25.3,0.00,,Overcast,10,2013-05-03 12:53:00
8:53 AM,34.0,33.1,96,30.12,3.0,North,12.7,-,0.02,Rain,Rain,10,2013-05-03 13:53:00
9:10 AM,33.8,33.8,100,30.08,2.0,NNE,13.8,-,0.06,Rain,Heavy Rain,20,2013-05-03 14:10:00
9:26 AM,33.8,33.8,100,30.08,4.0,North,13.8,-,0.09,Rain,Rain,10,2013-05-03 14:26:00
9:41 AM,33.8,33.8,100,30.07,4.0,NNE,17.3,-,0.12,Rain,Rain,20,2013-05-03 14:41:00
9:48 AM,33.8,33.8,100,30.06,5.0,NNE,16.1,21.9,0.13,Rain,Light Rain,20,2013-05-03 14:48:00
9:53 AM,34.0,34.0,100,30.09,5.0,NNE,18.4,23.0,0.13,Rain,Light Rain,20,2013-05-03 14:53:00
10:37 AM,33.8,33.8,100,30.02,4.0,NNE,23.0,29.9,0.07,Rain,Rain,20,2013-05-03 15:37:00
10:51 AM,33.8,33.8,100,30.02,5.0,NNE,19.6,27.6,0.10,Rain,Light Rain,20,2013-05-03 15:51:00
10:53 AM,34.0,34.0,100,30.05,5.0,NNE,19.6,27.6,0.10,Rain,Rain,30,2013-05-03 15:53:00
11:53 AM,35.1,35.1,100,30.04,4.0,NNE,19.6,32.2,0.06,Rain,Rain,20,2013-05-03 16:53:00
12:18 PM,35.6,35.6,100,30.04,1.8,NE,8.1,-,0.13,Rain,Heavy Rain,40,2013-05-03 17:18:00
12:26 PM,35.6,35.6,100,30.04,3.0,NE,6.9,-,0.17,Rain,Rain,40,2013-05-03 17:26:00
12:53 PM,36.0,36.0,100,30.05,3.0,NNE,11.5,-,0.25,Rain,Rain,30,2013-05-03 17:53:00
1:02 PM,35.6,35.6,100,30.01,2.5,NNE,12.7,-,0.04,Rain,Rain,20,2013-05-03 18:02:00
1:10 PM,35.6,35.6,100,30.01,3.0,NNE,11.5,-,0.06,Rain,Rain,20,2013-05-03 18:10:00
1:53 PM,37.0,37.0,100,30.03,5.0,NNE,13.8,-,0.15,Rain,Rain,20,2013-05-03 18:53:00
2:53 PM,39.0,39.0,100,30.02,5.0,NNE,13.8,-,0.06,Rain,Light Rain,30,2013-05-03 19:53:00
3:53 PM,39.9,39.9,100,30.01,6.0,NNE,12.7,20.7,0.05,Rain,Light Rain,30,2013-05-03 20:53:00
4:53 PM,41.0,41.0,100,29.99,5.0,NE,19.6,25.3,0.03,Rain,Light Rain,40,2013-05-03 21:53:00
5:06 PM,41.0,41.0,100,29.94,2.0,NNE,19.6,25.3,0.03,Rain,Rain,30,2013-05-03 22:06:00
5:53 PM,41.0,41.0,100,29.99,1.5,NNE,19.6,-,0.20,Rain,Heavy Rain,20,2013-05-03 22:53:00
6:53 PM,41.0,41.0,100,29.98,1.5,NNE,19.6,-,0.16,Rain,Rain,30,2013-05-03 23:53:00
7:11 PM,41.0,41.0,100,29.95,0.5,NNE,19.6,-,0.05,Fog-Rain,Heavy Rain,30,2013-05-04 00:11:00
7:53 PM,41.0,41.0,100,29.97,9.0,NNE,18.4,-,0.11,,Overcast,30,2013-05-04 00:53:00
8:53 PM,42.1,42.1,100,29.98,7.0,NNE,19.6,-,0.01,,Overcast,30,2013-05-04 01:53:00
9:53 PM,43.0,43.0,100,29.97,2.5,NNE,19.6,-,0.01,,Overcast,30,2013-05-04 02:53:00
10:04 PM,42.8,42.8,100,29.94,1.0,NNE,19.6,-,N/A,,Mist,30,2013-05-04 03:04:00
10:11 PM,42.8,42.8,100,29.94,0.5,NE,18.4,-,N/A,Fog,Fog,40,2013-05-04 03:11:00
10:16 PM,42.8,42.8,100,29.94,0.2,NNE,19.6,-,N/A,Fog,Fog,30,2013-05-04 03:16:00
10:29 PM,42.8,42.8,100,29.94,0.5,NE,23.0,27.6,0.04,Fog-Rain-Thunderstorm,Heavy Thunderstorms and Rain,40,2013-05-04 03:29:00
10:43 PM,44.6,44.6,100,29.94,0.8,NE,18.4,-,0.06,Rain-Thunderstorm,Light Thunderstorms and Rain,40,2013-05-04 03:43:00
10:53 PM,44.1,44.1,100,29.98,1.2,NNE,13.8,21.9,0.10,Rain-Thunderstorm,Light Thunderstorms and Rain,30,2013-05-04 03:53:00
11:19 PM,44.6,44.6,100,29.93,0.5,NNE,16.1,25.3,0.15,Fog-Rain-Thunderstorm,Light Thunderstorms and Rain,30,2013-05-04 04:19:00
11:26 PM,44.6,44.6,100,29.93,0.5,NNE,18.4,-,0.15,Fog,Fog,30,2013-05-04 04:26:00
11:36 PM,44.6,44.6,100,29.93,0.2,NNE,16.1,-,0.15,Fog,Fog,30,2013-05-04 04:36:00
11:48 PM,44.6,44.6,100,29.93,0.2,NNE,17.3,-,0.15,Fog-Rain,Light Rain,30,2013-05-04 04:48:00
11:53 PM,44.1,44.1,100,29.96,0.2,NNE,15.0,-,0.16,Fog-Rain,Rain,30,2013-05-04 04:53:00